Simultaneous Nadir Overpasses (SNOs) Predictions

Prediction of SNOs between GOES-16 and NOAA-19 Satellite Orbit:

Table of predicted SNOs for the next 14.0 days since TLE Epoch: 1/6/2024
Index Date Time (GOES-16) GOES-16 Lat,Lon NOAA-19 Lat,Lon Distance(km) Time Diff (sec)
1 01/08/2024 14:13:25 -0.03, -75.23 0.60, -78.04 320.07 80
2 01/09/2024 13:58:36 -0.03, -75.23 -0.09, -75.08 18.19 80
3 01/10/2024 13:46:26 -0.03, -75.24 -0.73, -72.11 356.00 80
4 01/13/2024 02:08:58 0.03, -75.22 -0.33, -76.85 184.87 80
5 01/14/2024 01:54:08 0.02, -75.23 0.33, -73.88 153.96 80
6 01/15/2024 01:41:57 0.02, -75.24 1.00, -70.92 493.05 80
7 01/16/2024 14:16:30 -0.01, -75.29 0.74, -78.57 374.45 80
8 01/17/2024 14:04:19 -0.01, -75.30 0.09, -75.60 35.23 80
9 01/18/2024 13:49:30 -0.02, -75.31 -0.63, -72.65 304.33 80
